2015-11-08, 07:06:04,VALID,918.781,VALID,0,VALID,100.667,VALID,112.921,VALID,19.8198,INVALID,360,INVALID,0,
2015-11-08, 07:07:04,VALID,918.774,VALID,0,VALID,100.675,VALID,83.6967,VALID,19.8198,VALID,87,VALID,0,
2015-11-08, 07:08:04,VALID,918.763,VALID,0,VALID,100.667,VALID,96.1598,VALID,19.9173,VALID,87,VALID,0,
2015-11-08, 07:09:04,VALID,918.763,VALID,0,VALID,100.667,VALID,97.1268,VALID,19.9773,VALID,87,VALID,0,
2015-11-08, 07:10:04,VALID,918.776,VALID,0,VALID,100.682,VALID,82.5148,VALID,19.9758,VALID,87,VALID,0,
2015-11-08, 07:11:04,VALID,918.774,VALID,0,VALID,100.667,VALID,76.1758,VALID,19.9758,VALID,87,VALID,0,
2015-11-08, 07:12:04,VALID,918.761,VALID,0,VALID,100.713,VALID,72.7377,VALID,19.8978,VALID,87,VALID,0,
2015-11-08, 07:13:04,VALID,918.824,VALID,0,VALID,100.69,VALID,71.2335,VALID,19.8978,VALID,87,VALID,0,
2015-11-08, 07:14:04,VALID,918.826,VALID,0,VALID,100.69,VALID,74.3493,VALID,19.9578,VALID,87,VALID,0,
2015-11-08, 07:16:04,VALID,918.88,VALID,0,VALID,100.721,VALID,93.9036,VALID,19.9563,VALID,87,VALID,0,
2015-11-08, 07:17:04,VALID,918.862,VALID,0,VALID,100.675,VALID,86.0604,VALID,20.0148,VALID,87,VALID,0,
2015-11-08, 07:18:04,VALID,918.942,VALID,0,VALID,100.705,VALID,74.4567,VALID,20.0148,VALID,87,VALID,0,
2015-11-08, 07:19:04,VALID,918.965,VALID,0,VALID,100.713,VALID,76.4981,VALID,19.9758,VALID,87,VALID,0,
2015-11-08, 07:20:04,VALID,918.995,VALID,0,VALID,100.705,VALID,84.5562,VALID,19.9953,VALID,87,VALID,0,
2015-11-08, 07:21:04,VALID,919.009,VALID,0,VALID,100.698,VALID,84.5562,VALID,19.9953,VALID,87,VALID,0,
2015-11-08, 07:22:04,VALID,919.037,VALID,0,VALID,100.721,VALID,86.1678,VALID,19.9758,VALID,87,VALID,0,
2015-11-08, 07:23:04,VALID,919.046,VALID,0,VALID,100.743,VALID,88.8538,VALID,19.8588,VALID,87,VALID,0,
2015-11-08, 07:24:04,VALID,919.055,VALID,0,VALID,100.804,VALID,92.3994,VALID,19.7613,VALID,87,VALID,0,
2015-11-08, 07:25:04,VALID,919.07,VALID,0,VALID,100.804,VALID,94.011,VALID,19.7028,VALID,87,VALID,0,
2015-11-08, 07:26:04,VALID,919.087,VALID,0,VALID,100.789,VALID,96.0524,VALID,19.7028,VALID,87,VALID,0,
2015-11-08, 07:27:04,VALID,919.122,VALID,0,VALID,100.782,VALID,97.7714,VALID,19.7028,VALID,87,VALID,0,
2015-11-08, 07:28:04,VALID,919.143,VALID,0,VALID,100.774,VALID,99.9203,VALID,19.7403,VALID,87,VALID,0,
2015-11-08, 07:29:04,VALID,919.154,VALID,0,VALID,100.728,VALID,100.887,VALID,19.8198,VALID,87,VALID,0,
2015-11-08, 07:30:04,VALID,919.198,VALID,0,VALID,100.713,VALID,99.8128,VALID,19.8783,VALID,87,VALID,0,
2015-11-08, 07:31:04,VALID,919.193,VALID,0,VALID,100.759,VALID,101.317,VALID,19.8003,VALID,87,VALID,0,
2015-11-08, 07:32:04,VALID,919.201,VALID,0,VALID,100.728,VALID,104.433,VALID,19.8393,VALID,87,VALID,0,
2015-11-08, 07:33:04,VALID,919.251,VALID,0,VALID,100.728,VALID,108.73,VALID,19.8588,VALID,87,VALID,0,
2015-11-08, 07:34:04,VALID,919.229,VALID,0,VALID,100.705,VALID,115.069,VALID,19.9173,VALID,87,VALID,0,
2015-11-08, 07:35:04,VALID,919.238,VALID,0,VALID,100.705,VALID,123.772,VALID,19.9758,VALID,87,VALID,0,
2015-11-08, 07:36:04,VALID,919.252,VALID,0,VALID,100.667,VALID,127.425,VALID,20.0538,VALID,87,VALID,0,
2015-11-08, 07:37:04,VALID,919.25,VALID,0,VALID,100.629,VALID,132.905,VALID,20.1513,VALID,87,VALID,0,
2015-11-08, 07:38:04,VALID,919.274,VALID,0,VALID,100.637,VALID,140.318,VALID,20.2098,VALID,87,VALID,0,
2015-11-08, 07:39:04,VALID,919.299,VALID,0,VALID,100.621,VALID,141.393,VALID,20.2489,VALID,87,VALID,0,
2015-11-08, 07:40:04,VALID,919.311,VALID,0,VALID,100.675,VALID,141.285,VALID,20.1903,VALID,88,VALID,0,
2015-11-08, 07:41:04,VALID,919.318,VALID,0,VALID,100.652,VALID,141.715,VALID,20.1708,VALID,88,VALID,0,
2015-11-08, 07:42:04,VALID,919.366,VALID,0,VALID,100.667,VALID,139.459,VALID,20.1318,VALID,114,VALID,0,
2015-11-08, 07:43:04,VALID,919.354,VALID,0,VALID,100.66,VALID,143.541,VALID,20.1123,VALID,148,VALID,0,
2015-11-08, 07:44:04,VALID,919.376,VALID,0,VALID,100.698,VALID,158.046,VALID,20.0538,VALID,135,VALID,0,
2015-11-08, 07:45:04,VALID,919.413,VALID,0,VALID,100.698,VALID,168.145,VALID,20.0538,VALID,135,VALID,0,
2015-11-08, 07:46:04,VALID,919.416,VALID,0,VALID,100.69,VALID,173.088,VALID,20.0928,VALID,179,VALID,0.98125,
2015-11-08, 07:47:04,VALID,919.433,VALID,0,VALID,100.705,VALID,179.964,VALID,20.0328,VALID,179,VALID,0,
2015-11-08, 07:48:04,VALID,919.423,VALID,0,VALID,100.69,VALID,182.972,VALID,20.0538,VALID,176,VALID,0.337109,
2015-11-08, 07:49:04,VALID,919.469,VALID,0,VALID,100.69,VALID,182.865,VALID,20.0523,VALID,168,VALID,0,
2015-11-08, 07:50:04,VALID,919.448,VALID,0,VALID,100.682,VALID,185.121,VALID,20.0718,VALID,156,VALID,0,
2015-11-08, 07:51:04,VALID,919.51,VALID,0,VALID,100.69,VALID,194.039,VALID,20.0733,VALID,156,VALID,0,
2015-11-08, 07:52:04,VALID,919.547,VALID,0,VALID,100.698,VALID,210.585,VALID,20.1318,VALID,156,VALID,0,
2015-11-08, 07:53:04,VALID,919.554,VALID,0,VALID,100.69,VALID,219.073,VALID,20.2293,VALID,96,VALID,1.38359,
2015-11-08, 07:54:04,VALID,919.592,VALID,0,VALID,100.69,VALID,214.775,VALID,20.1888,VALID,88,VALID,0.586719,
2015-11-08, 07:55:04,VALID,919.593,VALID,0,VALID,100.698,VALID,228.205,VALID,20.2083,VALID,125,VALID,0,
2015-11-08, 07:56:04,VALID,919.645,VALID,0,VALID,100.66,VALID,236.048,VALID,20.3058,VALID,117,VALID,0,
2015-11-08, 07:57:04,VALID,919.632,VALID,0,VALID,100.599,VALID,231.213,VALID,20.5009,VALID,121,VALID,0,
2015-11-08, 07:58:04,VALID,919.672,VALID,0,VALID,100.644,VALID,224.015,VALID,20.4618,VALID,149,VALID,0,
2015-11-08, 07:59:04,VALID,919.66,VALID,0,VALID,100.644,VALID,217.891,VALID,20.4228,VALID,166,VALID,0,
2015-11-08, 08:00:04,VALID,919.677,VALID,0,VALID,100.644,VALID,210.692,VALID,20.4423,VALID,129,VALID,0,
2015-11-08, 08:01:04,VALID,919.709,VALID,0,VALID,100.644,VALID,212.733,VALID,20.4845,VALID,153,VALID,0,
2015-11-08, 08:02:04,VALID,919.744,VALID,0,VALID,100.652,VALID,226.056,VALID,20.5009,VALID,152,VALID,0,
2015-11-08, 08:03:04,VALID,919.736,VALID,0,VALID,100.667,VALID,249.156,VALID,20.5399,VALID,106,VALID,0,
2015-11-08, 08:04:04,VALID,919.739,VALID,0,VALID,100.629,VALID,251.305,VALID,20.6764,VALID,104,VALID,0,
2015-11-08, 08:05:04,VALID,919.764,VALID,0,VALID,100.644,VALID,245.396,VALID,20.6764,VALID,86,VALID,0,
2015-11-08, 08:06:04,VALID,919.769,VALID,0,VALID,100.644,VALID,248.941,VALID,20.7349,VALID,60,VALID,0,
2015-11-08, 08:07:04,VALID,919.772,VALID,0,VALID,100.69,VALID,275.372,VALID,20.6553,VALID,120,VALID,0,
2015-11-08, 08:08:04,VALID,919.756,VALID,0,VALID,100.698,VALID,354.233,VALID,20.6764,VALID,105,VALID,0,
2015-11-08, 08:09:04,VALID,919.749,VALID,0,VALID,100.66,VALID,452.972,VALID,20.8129,VALID,52,VALID,0,
2015-11-08, 08:10:04,VALID,919.77,VALID,0,VALID,100.721,VALID,535.594,VALID,20.7544,VALID,88,VALID,0,
2015-11-08, 08:11:04,VALID,919.751,VALID,0,VALID,100.751,VALID,479.402,VALID,20.8324,VALID,86,VALID,0,
2015-11-08, 08:12:04,VALID,919.787,VALID,0,VALID,100.682,VALID,352.3,VALID,21.047,VALID,164,VALID,0,
2015-11-08, 08:13:04,VALID,919.804,VALID,0,VALID,100.698,VALID,283.322,VALID,20.9674,VALID,171,VALID,0,
2015-11-08, 08:14:04,VALID,919.823,VALID,0,VALID,100.721,VALID,260.33,VALID,21.008,VALID,164,VALID,0,
2015-11-08, 08:15:04,VALID,919.847,VALID,0,VALID,100.736,VALID,245.073,VALID,21.047,VALID,187,VALID,0,
2015-11-08, 08:16:04,VALID,919.863,VALID,0,VALID,100.713,VALID,227.775,VALID,21.1836,VALID,187,VALID,0,
2015-11-08, 08:17:04,VALID,919.874,VALID,0,VALID,100.789,VALID,224.552,VALID,21.008,VALID,150,VALID,0,
2015-11-08, 08:18:04,VALID,919.92,VALID,0,VALID,100.804,VALID,223.37,VALID,21.125,VALID,153,VALID,0,
2015-11-08, 08:19:04,VALID,919.926,VALID,0,VALID,100.789,VALID,221.329,VALID,21.2226,VALID,145,VALID,0.695703,
2015-11-08, 08:20:04,VALID,919.968,VALID,0,VALID,100.82,VALID,221.329,VALID,21.1836,VALID,165,VALID,0.692187,
2015-11-08, 08:21:04,VALID,919.96,VALID,0,VALID,100.85,VALID,221.759,VALID,21.1836,VALID,160,VALID,0,
2015-11-08, 08:22:04,VALID,919.97,VALID,0,VALID,100.888,VALID,219.502,VALID,21.2031,VALID,183,VALID,0,
2015-11-08, 08:23:04,VALID,920.011,VALID,0,VALID,100.949,VALID,218.428,VALID,21.125,VALID,168,VALID,0,
2015-11-08, 08:24:04,VALID,920.034,VALID,0,VALID,100.911,VALID,217.891,VALID,21.2421,VALID,168,VALID,0,
2015-11-08, 08:25:04,VALID,920.045,VALID,0,VALID,100.888,VALID,218.643,VALID,21.299,VALID,168,VALID,0,
2015-11-08, 08:26:04,VALID,920.053,VALID,0,VALID,100.904,VALID,220.039,VALID,21.338,VALID,171,VALID,0,
2015-11-08, 08:27:04,VALID,920.065,VALID,0,VALID,100.987,VALID,220.899,VALID,21.2616,VALID,175,VALID,0,
2015-11-08, 08:28:04,VALID,920.086,VALID,0,VALID,101.01,VALID,221.651,VALID,21.221,VALID,155,VALID,0,
2015-11-08, 08:29:04,VALID,920.095,VALID,0,VALID,101.079,VALID,222.403,VALID,21.1819,VALID,155,VALID,0,
2015-11-08, 08:30:04,VALID,920.121,VALID,0,VALID,101.109,VALID,223.048,VALID,21.1819,VALID,175,VALID,0,
2015-11-08, 08:31:04,VALID,920.132,VALID,0,VALID,101.102,VALID,224.767,VALID,21.26,VALID,193,VALID,0,
2015-11-08, 08:32:04,VALID,920.141,VALID,0,VALID,101.064,VALID,227.453,VALID,21.3786,VALID,175,VALID,0,
2015-11-08, 08:33:04,VALID,920.124,VALID,0,VALID,101.094,VALID,231.106,VALID,21.377,VALID,217,VALID,0,
2015-11-08, 08:34:04,VALID,920.114,VALID,0,VALID,101.155,VALID,234.437,VALID,21.3786,VALID,185,VALID,0,
2015-11-08, 08:35:04,VALID,920.139,VALID,0,VALID,101.216,VALID,237.123,VALID,21.3575,VALID,193,VALID,0,
2015-11-08, 08:36:04,VALID,920.152,VALID,0,VALID,101.247,VALID,238.627,VALID,21.3575,VALID,202,VALID,0,
2015-11-08, 08:37:04,VALID,920.163,VALID,0,VALID,101.231,VALID,240.346,VALID,21.455,VALID,189,VALID,0,
2015-11-08, 08:38:04,VALID,920.148,VALID,0,VALID,101.208,VALID,242.71,VALID,21.5526,VALID,190,VALID,0,
2015-11-08, 08:39:04,VALID,920.184,VALID,0,VALID,101.186,VALID,246.04,VALID,21.6696,VALID,190,VALID,0,
2015-11-08, 08:40:04,VALID,920.164,VALID,0,VALID,101.186,VALID,250.768,VALID,21.7282,VALID,194,VALID,0,
2015-11-08, 08:41:04,VALID,920.189,VALID,0,VALID,101.231,VALID,256.462,VALID,21.8062,VALID,182,VALID,0,
2015-11-08, 08:42:04,VALID,920.179,VALID,0,VALID,101.361,VALID,261.512,VALID,21.7477,VALID,213,VALID,0,
2015-11-08, 08:43:04,VALID,920.207,VALID,0,VALID,101.369,VALID,265.595,VALID,21.7655,VALID,169,VALID,0,
2015-11-08, 08:44:04,VALID,920.216,VALID,0,VALID,101.361,VALID,267.958,VALID,21.9038,VALID,198,VALID,0,
2015-11-08, 08:45:04,VALID,920.225,VALID,0,VALID,101.346,VALID,270,VALID,22.0013,VALID,198,VALID,0,
2015-11-08, 08:46:04,VALID,920.224,VALID,0,VALID,101.353,VALID,273.115,VALID,22.0794,VALID,197,VALID,0,
2015-11-08, 08:47:04,VALID,920.24,VALID,0,VALID,101.384,VALID,276.016,VALID,22.1574,VALID,198,VALID,0,
2015-11-08, 08:48:04,VALID,920.213,VALID,0,VALID,101.43,VALID,278.38,VALID,22.2354,VALID,198,VALID,0,
2015-11-08, 08:49:04,VALID,920.244,VALID,0,VALID,101.452,VALID,282.678,VALID,22.333,VALID,165,VALID,0,
2015-11-08, 08:50:04,VALID,920.269,VALID,0,VALID,101.597,VALID,282.355,VALID,22.333,VALID,82,VALID,0,
2015-11-08, 08:51:04,VALID,920.276,VALID,0,VALID,101.795,VALID,277.091,VALID,22.255,VALID,126,VALID,0,
2015-11-08, 08:52:04,VALID,920.269,VALID,0,VALID,101.795,VALID,274.942,VALID,22.294,VALID,126,VALID,0,
2015-11-08, 08:53:04,VALID,920.271,VALID,0,VALID,101.978,VALID,274.834,VALID,22.2745,VALID,126,VALID,0,
2015-11-08, 08:54:04,VALID,920.275,VALID,0,VALID,102.093,VALID,278.917,VALID,22.2533,VALID,114,VALID,0,
2015-11-08, 08:55:04,VALID,920.296,VALID,0,VALID,102.177,VALID,280.529,VALID,22.294,VALID,116,VALID,0,
2015-11-08, 08:56:04,VALID,920.286,VALID,0,VALID,102.276,VALID,280.744,VALID,22.3135,VALID,145,VALID,0,
2015-11-08, 08:57:04,VALID,920.312,VALID,0,VALID,102.382,VALID,277.521,VALID,22.333,VALID,156,VALID,0,
2015-11-08, 08:58:04,VALID,920.308,VALID,0,VALID,102.405,VALID,279.992,VALID,22.4306,VALID,156,VALID,0,
2015-11-08, 08:59:04,VALID,920.286,VALID,0,VALID,102.421,VALID,275.801,VALID,22.5264,VALID,85,VALID,0,
2015-11-08, 09:00:04,VALID,920.271,VALID,0,VALID,102.52,VALID,284.074,VALID,22.5655,VALID,85,VALID,0,
2015-11-08, 09:01:04,VALID,920.262,VALID,0,VALID,102.665,VALID,294.496,VALID,22.5281,VALID,114,VALID,0,
2015-11-08, 09:02:04,VALID,920.24,VALID,0,VALID,102.794,VALID,304.488,VALID,22.4094,VALID,130,VALID,0,
2015-11-08, 09:03:04,VALID,920.238,VALID,0,VALID,102.733,VALID,315.232,VALID,22.5459,VALID,130,VALID,0,
2015-11-08, 09:04:04,VALID,920.211,VALID,0,VALID,102.748,VALID,308.464,VALID,22.6435,VALID,130,VALID,0,
2015-11-08, 09:05:04,VALID,920.232,VALID,0,VALID,102.748,VALID,294.496,VALID,22.7623,VALID,17,VALID,0,
2015-11-08, 09:06:04,VALID,920.208,VALID,0,VALID,102.741,VALID,315.984,VALID,22.8972,VALID,64,VALID,0,
2015-11-08, 09:07:04,VALID,920.187,VALID,0,VALID,102.924,VALID,274.19,VALID,22.8191,VALID,152,VALID,0,
2015-11-08, 09:08:04,VALID,920.157,VALID,0,VALID,102.962,VALID,254.636,VALID,22.7411,VALID,126,VALID,1.20078,
2015-11-08, 09:09:04,VALID,920.127,VALID,0,VALID,102.748,VALID,249.693,VALID,22.663,VALID,119,VALID,0.707422,
2015-11-08, 09:10:04,VALID,920.124,VALID,0,VALID,102.512,VALID,248.189,VALID,22.624,VALID,129,VALID,0.558594,
2015-11-08, 09:11:04,VALID,920.124,VALID,0,VALID,102.283,VALID,241.635,VALID,22.585,VALID,128,VALID,0.419531,
2015-11-08, 09:12:04,VALID,920.116,VALID,0,VALID,102.116,VALID,239.164,VALID,22.5459,VALID,117,VALID,1.26797,
2015-11-08, 09:13:04,VALID,920.117,VALID,0,VALID,101.94,VALID,245.288,VALID,22.5264,VALID,110,VALID,1.04648,
2015-11-08, 09:14:04,VALID,920.136,VALID,0,VALID,101.94,VALID,270.859,VALID,22.6045,VALID,112,VALID,0,
2015-11-08, 09:15:04,VALID,920.11,VALID,0,VALID,101.681,VALID,310.827,VALID,22.585,VALID,86,VALID,0,
2015-11-08, 09:16:04,VALID,920.096,VALID,0,VALID,101.605,VALID,354.878,VALID,22.663,VALID,118,VALID,0,
2015-11-08, 09:17:04,VALID,920.085,VALID,0,VALID,101.628,VALID,323.72,VALID,22.7979,VALID,107,VALID,0,
2015-11-08, 09:18:04,VALID,920.093,VALID,0,VALID,101.292,VALID,367.879,VALID,22.915,VALID,56,VALID,0,
2015-11-08, 09:19:04,VALID,920.111,VALID,0,VALID,100.957,VALID,352.407,VALID,23.0125,VALID,48,VALID,0.151953,
2015-11-08, 09:20:04,VALID,920.116,VALID,0,VALID,100.499,VALID,477.683,VALID,23.1314,VALID,51,VALID,0,
2015-11-08, 09:21:04,VALID,920.116,VALID,0,VALID,99.3179,VALID,508.841,VALID,23.1101,VALID,132,VALID,0,
2015-11-08, 09:22:04,VALID,920.099,VALID,0,VALID,99.2035,VALID,490.684,VALID,23.2272,VALID,143,VALID,0,
2015-11-08, 09:23:04,VALID,920.146,VALID,0,VALID,99.2416,VALID,338.977,VALID,23.3851,INVALID,360,INVALID,0,
2015-11-08, 09:24:04,VALID,920.096,VALID,0,VALID,99.0587,VALID,316.629,VALID,23.4827,VALID,87,VALID,0,
2015-11-08, 09:25:04,VALID,920.092,VALID,0,VALID,97.4425,VALID,361.862,VALID,23.4437,VALID,102,VALID,0.0183594,
2015-11-08, 09:26:04,VALID,920.104,VALID,0,VALID,96.238,VALID,449.211,VALID,23.307,VALID,106,VALID,0,
2015-11-08, 09:27:04,VALID,920.072,VALID,0,VALID,97.4044,VALID,650.449,VALID,23.3656,VALID,87,VALID,0,
2015-11-08, 09:28:04,VALID,920.053,VALID,0,VALID,98.708,VALID,506.8,VALID,23.5608,VALID,71,VALID,0,
2015-11-08, 09:29:04,VALID,920.053,VALID,0,VALID,97.8008,VALID,481.659,VALID,23.7169,VALID,150,VALID,0,
2015-11-08, 09:30:04,VALID,919.999,VALID,0,VALID,96.8555,VALID,462.104,VALID,23.756,VALID,141,VALID,0,
2015-11-08, 09:31:04,VALID,920.015,VALID,0,VALID,97.0232,VALID,496.163,VALID,23.8517,VALID,133,VALID,0,
2015-11-08, 09:32:04,VALID,920.002,VALID,0,VALID,96.0322,VALID,666.135,VALID,23.9121,VALID,154,VALID,0,
2015-11-08, 09:33:04,VALID,919.99,VALID,0,VALID,95.8721,VALID,625.522,VALID,24.0274,VALID,164,VALID,0,
2015-11-08, 09:34:04,VALID,920.025,VALID,0,VALID,94.8048,VALID,541.611,VALID,24.1836,VALID,163,VALID,0,
2015-11-08, 09:35:04,VALID,919.996,VALID,0,VALID,95.2622,VALID,484.237,VALID,24.3788,VALID,137,VALID,0,
2015-11-08, 09:36:04,VALID,919.997,VALID,0,VALID,87.7226,VALID,500.783,VALID,24.3806,VALID,121,VALID,0,
2015-11-08, 09:37:04,VALID,920.019,VALID,0,VALID,85.2222,VALID,600.166,VALID,24.4392,VALID,181,VALID,0,
2015-11-08, 09:38:04,VALID,919.992,VALID,0,VALID,83.9643,VALID,466.509,VALID,24.5173,VALID,202,VALID,0,
2015-11-08, 09:39:04,VALID,919.962,VALID,0,VALID,86.1294,VALID,475.427,VALID,24.6735,VALID,193,VALID,0,
2015-11-08, 09:40:04,VALID,919.954,VALID,0,VALID,84.78,VALID,263.983,VALID,24.7926,VALID,177,VALID,0,
2015-11-08, 09:41:04,VALID,919.919,VALID,0,VALID,82.3863,VALID,255.495,VALID,24.7126,VALID,166,VALID,0,
2015-11-08, 09:42:04,VALID,919.894,VALID,0,VALID,82.4777,VALID,273.33,VALID,24.4783,VALID,154,VALID,0,
2015-11-08, 09:43:04,VALID,919.838,VALID,0,VALID,84.4598,VALID,752.733,VALID,24.4783,VALID,211,VALID,0,
2015-11-08, 09:44:04,VALID,919.865,VALID,0,VALID,85.0621,VALID,822.569,VALID,24.5954,VALID,188,VALID,0,
2015-11-08, 09:45:04,VALID,919.822,VALID,0,VALID,85.2298,VALID,814.834,VALID,24.8492,VALID,212,VALID,0,
2015-11-08, 09:46:04,VALID,919.832,VALID,0,VALID,81.38,VALID,828.694,VALID,25.064,VALID,131,VALID,0.251172,
2015-11-08, 09:47:04,VALID,919.858,VALID,0,VALID,80.0535,VALID,796.676,VALID,25.2398,VALID,198,VALID,0.0417969,
2015-11-08, 09:48:04,VALID,919.866,VALID,0,VALID,79.7943,VALID,814.726,VALID,25.4546,VALID,184,VALID,0,
2015-11-08, 09:49:04,VALID,919.841,VALID,0,VALID,77.431,VALID,667.639,VALID,25.6499,VALID,194,VALID,1.27852,
2015-11-08, 09:50:04,VALID,919.873,VALID,0,VALID,77.6292,VALID,444.591,VALID,25.648,VALID,169,VALID,1.34883,
2015-11-08, 09:51:04,VALID,919.87,VALID,0,VALID,77.2862,VALID,810.106,VALID,25.6499,VALID,187,VALID,0.438281,
2015-11-08, 09:52:04,VALID,919.844,VALID,0,VALID,78.7346,VALID,675.16,VALID,25.5698,VALID,152,VALID,0.0164062,
2015-11-08, 09:53:04,VALID,919.871,VALID,0,VALID,79.2759,VALID,353.267,VALID,25.5503,VALID,175,VALID,0,
2015-11-08, 09:54:04,VALID,919.87,VALID,0,VALID,76.2951,VALID,350.903,VALID,25.4722,VALID,218,VALID,1.48086,
2015-11-08, 09:55:04,VALID,919.86,VALID,0,VALID,79.1768,VALID,345.746,VALID,25.4527,VALID,213,VALID,0,
2015-11-08, 09:56:04,VALID,919.895,VALID,0,VALID,81.5096,VALID,357.886,VALID,25.5503,VALID,158,VALID,0,
2015-11-08, 09:57:04,VALID,919.878,VALID,0,VALID,79.5961,VALID,375.077,VALID,25.5894,VALID,120,VALID,0,
2015-11-08, 09:58:04,VALID,919.928,VALID,0,VALID,77.1871,VALID,756.063,VALID,25.6089,VALID,143,VALID,0,
2015-11-08, 09:59:04,VALID,919.916,VALID,0,VALID,77.6445,VALID,306.637,VALID,25.648,VALID,108,VALID,0,
2015-11-08, 10:00:04,VALID,919.899,VALID,0,VALID,75.7005,VALID,312.761,VALID,25.5698,VALID,66,VALID,0,
2015-11-08, 10:01:04,VALID,919.894,VALID,0,VALID,77.6292,VALID,314.48,VALID,25.4527,VALID,61,VALID,0.0148437,
2015-11-08, 10:02:04,VALID,919.867,VALID,0,VALID,73.5355,VALID,243.891,VALID,25.3941,VALID,91,VALID,0.337109,
2015-11-08, 10:03:04,VALID,919.884,VALID,0,VALID,75.7615,VALID,208.221,VALID,25.316,VALID,84,VALID,0,
2015-11-08, 10:04:04,VALID,919.903,VALID,0,VALID,76.379,VALID,193.716,VALID,25.2965,VALID,99,VALID,0,
2015-11-08, 10:05:04,VALID,919.852,VALID,0,VALID,74.6714,VALID,180.501,VALID,25.1402,VALID,126,VALID,0,
2015-11-08, 10:06:04,VALID,919.826,VALID,0,VALID,75.0602,VALID,173.088,VALID,24.945,VALID,92,VALID,0,
2015-11-08, 10:07:04,VALID,919.803,VALID,0,VALID,76.0588,VALID,179.534,VALID,24.8474,VALID,110,VALID,0,
2015-11-08, 10:08:04,VALID,919.825,VALID,0,VALID,75.6243,VALID,192.964,VALID,24.7674,VALID,122,VALID,0,
2015-11-08, 10:09:04,VALID,919.791,VALID,0,VALID,77.088,VALID,207.254,VALID,24.7693,VALID,154,VALID,0,
2015-11-08, 10:10:04,VALID,919.798,VALID,0,VALID,78.0943,VALID,224.982,VALID,24.8083,VALID,153,VALID,0,
2015-11-08, 10:11:04,VALID,919.786,VALID,0,VALID,73.9776,VALID,240.024,VALID,24.7107,VALID,154,VALID,0.0417969,
2015-11-08, 10:12:04,VALID,919.757,VALID,0,VALID,75.8149,VALID,251.305,VALID,24.6698,VALID,169,VALID,0,
2015-11-08, 10:13:04,VALID,919.732,VALID,0,VALID,76.1656,VALID,256.247,VALID,24.7497,VALID,170,VALID,0,
2015-11-08, 10:14:04,VALID,919.743,VALID,0,VALID,76.844,VALID,309.538,VALID,24.8864,VALID,170,VALID,0,
2015-11-08, 10:15:04,VALID,919.718,VALID,0,VALID,74.5799,VALID,324.687,VALID,25.0621,VALID,32,VALID,0,
2015-11-08, 10:16:04,VALID,919.668,VALID,0,VALID,74.8696,VALID,388.937,VALID,25.1988,VALID,12,VALID,0,
2015-11-08, 10:17:04,VALID,919.681,VALID,0,VALID,74.5646,VALID,374.647,VALID,25.355,VALID,8,VALID,0,
2015-11-08, 10:18:04,VALID,919.661,VALID,0,VALID,73.8709,VALID,537.206,VALID,25.4917,VALID,8,VALID,0,
2015-11-08, 10:19:04,VALID,919.646,VALID,0,VALID,73.3144,VALID,530.759,VALID,25.6284,VALID,350,VALID,0.00390625,
2015-11-08, 10:20:04,VALID,919.625,VALID,0,VALID,72.0489,VALID,567.504,VALID,25.687,VALID,347,VALID,0,
2015-11-08, 10:21:04,VALID,919.612,VALID,0,VALID,72.0641,VALID,367.126,VALID,25.7456,VALID,347,VALID,0,
2015-11-08, 10:22:04,VALID,919.613,VALID,0,VALID,71.6601,VALID,404.086,VALID,25.7241,VALID,23,VALID,0,
2015-11-08, 10:23:04,VALID,919.588,VALID,0,VALID,72.6664,VALID,395.491,VALID,25.728,VALID,14,VALID,0,
2015-11-08, 10:24:04,VALID,919.58,VALID,0,VALID,74.1072,VALID,619.076,VALID,25.7632,VALID,14,VALID,0,
2015-11-08, 10:25:04,VALID,919.585,VALID,0,VALID,73.5431,VALID,994.583,VALID,25.9214,VALID,14,VALID,0,
2015-11-08, 10:26:04,VALID,919.603,VALID,0,VALID,72.9485,VALID,897.026,VALID,25.9975,VALID,262,VALID,0,
2015-11-08, 10:27:04,VALID,919.582,VALID,0,VALID,72.6512,VALID,828.264,VALID,26.0581,VALID,236,VALID,0,
2015-11-08, 10:28:04,VALID,919.593,VALID,0,VALID,72.209,VALID,767.345,VALID,26.0366,VALID,282,VALID,0,
2015-11-08, 10:29:04,VALID,919.588,VALID,0,VALID,72.4453,VALID,924.424,VALID,26.1147,VALID,357,VALID,0.184766,
2015-11-08, 10:30:04,VALID,919.56,VALID,0,VALID,72.6588,VALID,560.95,VALID,26.3491,VALID,17,VALID,0,
2015-11-08, 10:31:04,VALID,919.562,VALID,0,VALID,73.3982,VALID,613.596,VALID,26.4683,VALID,4,VALID,0.904688,
2015-11-08, 10:32:04,VALID,919.585,VALID,0,VALID,68.6717,VALID,501.213,VALID,26.4858,VALID,339,VALID,0.465625,
2015-11-08, 10:33:04,VALID,919.559,VALID,0,VALID,67.7341,VALID,469.625,VALID,26.4077,VALID,322,VALID,0.00585938,
2015-11-08, 10:34:04,VALID,919.569,VALID,0,VALID,68.9538,VALID,353.159,VALID,26.2905,VALID,297,VALID,0,
2015-11-08, 10:35:04,VALID,919.549,VALID,0,VALID,68.626,VALID,353.374,VALID,26.1342,VALID,307,VALID,0,
2015-11-08, 10:36:04,VALID,919.533,VALID,0,VALID,69.4874,VALID,368.631,VALID,26.0952,VALID,312,VALID,0,
2015-11-08, 10:37:04,VALID,919.579,VALID,0,VALID,68.4735,VALID,390.334,VALID,26.019,VALID,338,VALID,0,
2015-11-08, 10:38:04,VALID,919.533,VALID,0,VALID,70.6233,VALID,439.112,VALID,25.9194,VALID,289,VALID,0,
2015-11-08, 10:39:04,VALID,919.564,VALID,0,VALID,69.9448,VALID,420.202,VALID,26.019,INVALID,360,VALID,0,
2015-11-08, 10:40:04,VALID,919.557,VALID,0,VALID,71.2332,VALID,402.152,VALID,26.0776,VALID,18,VALID,0,
2015-11-08, 10:41:04,VALID,919.546,VALID,0,VALID,70.326,VALID,399.251,VALID,26.2339,VALID,18,VALID,0,
2015-11-08, 10:42:04,VALID,919.581,VALID,0,VALID,66.9336,VALID,382.705,VALID,26.4097,VALID,359,VALID,0,
2015-11-08, 10:43:04,VALID,919.569,VALID,0,VALID,67.9628,VALID,384.21,VALID,26.4878,VALID,359,VALID,0,
2015-11-08, 10:44:04,VALID,919.542,VALID,0,VALID,69.7085,VALID,390.334,VALID,26.5855,VALID,12,VALID,0,
2015-11-08, 10:45:04,VALID,919.537,VALID,0,VALID,69.4265,VALID,661.085,VALID,26.7418,VALID,15,VALID,0,
2015-11-08, 10:46:04,VALID,919.514,VALID,0,VALID,68.2524,VALID,638.845,VALID,26.9742,VALID,360,VALID,0,
2015-11-08, 10:47:04,VALID,919.486,VALID,0,VALID,66.1941,VALID,308.034,VALID,27.1911,VALID,356,VALID,0,
2015-11-08, 10:48:04,VALID,919.465,VALID,0,VALID,63.4116,VALID,305.348,VALID,27.1521,VALID,325,VALID,0,
2015-11-08, 10:49:04,VALID,919.475,VALID,0,VALID,63.7546,VALID,285.471,VALID,26.8785,VALID,322,VALID,0,
2015-11-08, 10:50:04,VALID,919.43,VALID,0,VALID,64.0062,VALID,264.09,VALID,26.6636,VALID,322,VALID,0,
2015-11-08, 10:51:04,VALID,919.431,VALID,0,VALID,64.8524,VALID,262.371,VALID,26.564,VALID,322,VALID,0,
2015-11-08, 10:52:04,VALID,919.423,VALID,0,VALID,65.0811,VALID,270.107,VALID,26.4468,VALID,341,VALID,0,
2015-11-08, 10:53:04,VALID,919.395,VALID,0,VALID,66.8802,VALID,274.512,VALID,26.1928,VALID,341,VALID,0,
2015-11-08, 10:54:04,VALID,919.433,VALID,0,VALID,68.2906,VALID,257.536,VALID,26.0366,VALID,341,VALID,0,